Location: Trebic
(49.2170°N, 15.8830°E)
Time: 10:17:21
(UTC+02:00)

Transit 4A - Pass Details

Date: 25 August 2019
Orbit: 867 x 978 km, 66.8° (Epoch: 21 October)

Event Time Altitude Azimuth Distance (km) Brightness Sun altitude
Rises 01:37:37 0° 323° (NW) 3,657 11.6 -29.2°
Reaches altitude 10° 01:40:27 10° 333° (NNW) 2,694 10.9 -29.2°
Maximum altitude 01:46:10 35° 38° (NE) 1,466 9.3 -29.0°
Drops below altitude 10° 01:51:43 10° 104° (ESE) 2,614 10.2 -28.7°
Sets 01:54:26 0° 113° (ESE) 3,535 10.9 -28.6°
